Regional Weather Roundup
Issued by NWS

Home | Current Version | Previous Version | Graphics & Text | Print | Product List | Glossary On
Versions: 1 2 3 4 5 6 7 8 9 10 11 12 13 14 15 16 17 18 19 20 21 22 23 24 25 26 27 28 29 30 31 32 33 34 35 36 37 38 39 40 41 42 43
000
ASUS45 KSLC 100010
RWRUT

UTAH REGIONAL WEATHER ROUNDUP
NATIONAL WEATHER SERVICE SALT LAKE CITY UT
600 PM MDT WED JUL 09 2014

UTZ001>011-023>025-100100-

NORTHERN UTAH

CITY           SKY/WX    TMP DP  RH WIND       PRES   REMARKS
HILL AFB       PTSUNNY   91  50  24 S12       29.97F
LOGAN          SUNNY     94  47  20 VRB3      29.92F HX  90
OGDEN          MOSUNNY   93  46  19 SW12      29.93F
PROVO AIRPORT  LGT RAIN  77  55  47 S14       30.03R
SALT LAKE CITY PTSUNNY   92  47  21 VRB3      29.91F
VERNAL         PTSUNNY   85  46  25 W17G35    30.01F
WENDOVER       PTSUNNY   91  45  19 W16       29.91S
HEBER CITY     CLOUDY    77  50  38 N13G24    30.09R
WEST JORDAN    SUNNY     93  59  31 SE9G20    29.97S HX  92

$$

UTZ012>022-026-027-100100-

SOUTHERN UTAH

CITY           SKY/WX    TMP DP  RH WIND       PRES   REMARKS
BRYCE CANYON   PTSUNNY   68  51  54 W10       30.26F
CEDAR CITY     PTSUNNY   85  48  27 N9        30.09S
MILFORD        MOSUNNY   88  46  23 S13G22    30.00F
MOAB/CYNLANDS  MOSUNNY   97  43  15 VRB7      29.92F HX  93
PRICE          CLOUDY    71  57  61 NE22      30.09F
ST GEORGE      NOT AVBL

$$

REGIONAL REPORTS     COLORADO/ARIZONA

CITY           SKY/WX    TMP DP  RH WIND       PRES   REMARKS
CRAIG, CO      CLOUDY    72  44  36 S22G33    30.09F
GRAND JUNCTION PTSUNNY   89  45  21 SW6       29.98F
RIFLE          CLOUDY    84  37  18 W17G28    30.05R
MONTROSE       PTSUNNY   87  45  23 S16       30.09S
CORTEZ         SUNNY     77  51  40 NE13      30.13F
PAGE, AZ       MOSUNNY   90  47  22 W8        29.98F
GRAND CANYON   PTSUNNY   67  57  70 CALM      30.23F
KINGMAN        MOSUNNY   89  57  33 SW16      29.98F
FLAGSTAFF      CLOUDY    73  49  42 NW7       30.25F

$$

REGIONAL REPORTS    NEVADA/IDAHO/WYOMING

CITY           SKY/WX    TMP DP  RH WIND       PRES   REMARKS
LAS VEGAS, NV  PTSUNNY   95  59  30 VRB5      29.81F HX  94
ELY            CLOUDY    70  55  59 N12       30.17R
ELKO           RAIN      69  57  65 SE31G43   30.05R
POCATELLO, ID  SUNNY     93  44  18 SW10      29.91F
BURLEY         MOSUNNY   86  46  24 W10       29.89F
EVANSTON, WY   MOSUNNY   86  42  21 SW16      30.16S
ROCK SPRINGS   PTSUNNY   85  37  18 W25       30.08S

$$



USA.gov is the U.S. government's official web portal to all federal, state and local government web resources and services.